OBJECT C, 61240

Orbit data source: Space-Track

You're viewing an Uncataloged Satellite

Recently launched and/or uncataloged satellites may have evolving metadata. Metadata may include but not limited to: Owner, Maufacturer, Bus, Motor, and Mission.

OBJECT C, 61240 is a satellite owned by Changguang WJ (CN) in SSO that was launched on Tue, 24 Sep 2024 UTC via a LIJIAN-1 launch vehicle from the Jiuquan Satellite Launch Center, China (JSC). Unknown objects in Earth's orbit typically refer to objects detected orbiting the Earth but have not yet been identified or cataloged. These objects could be anything from previously untracked satellites, spent rocket stages, debris from satellite collisions, or even natural meteoroids temporarily captured by Earth's gravity.

Loading next visibility...
Identifier
61240, 2024-174C
Orbit
SSO
Last TLE update
8 hours ago
Origin
Flag of CNCGSTL (CN / PRC)
Manufacturer
Changguang WJ
Mission
Operational Commercial Radar Imaging
Bus & Motor
JL-1, Unknown motor
Mass
~250 kg wet, ~250 kg dry
Launch date (UTC)
2024-09-24 (7 months ago)
Launch vehicle
LIJIAN-1
Launch site
Jiuquan Satellite Launch Center, China (JSC)
Object type
Unknown
Shape & HBR
Box + 2 Pan, 1.5 m
Radar Cross Section
0.514 m², Large (>1 m²)

Expand to show TLE details & history

TLE from 8 hours ago
0 OBJECT C
1 61240U 24174C   25128.93946586  .00005326  00000-0  24758-3 0  9994
2 61240  97.4468 136.8236 0013410 205.5113 154.5462 15.20327711 34258
Epoch: 2025-05-08T22:32Z
Definitive object data (Epoch: 2025-05-08T22:32:49.85Z)
Latitude
Longitude
-68.38687°
Altitude
516.279 km
Speed
7.601 km/s
True Right ascension
09h 07m 17s
True Declination
0° 00' 00"
Sunlit
Object was in daylight at TLE epoch
Visualization TLE readout
Latitude
43.96574°
Longitude
-75.25656°
Altitude
520.162 km
Speed
7.603 km/s
Apparent Right ascension
05h 45m 11s
Apparent Declination
5° 36' 05"
Sunlit
Object is in daylight
Visualization observer readout
Local Sidereal Time
14:47:15
Azimuth
307.259° NW
Elevation
-28.813°
Doppler factor
1
Orbital elements
Apogee altitude
511.044 km
Perigee altitude
492.592 km
Semi-major axis
6,879.955 km
Eccentricity
0.001341
Inclination
97.4468°
RAAN
136.8236°
Arg. of periapsis
205.5113°
True anomaly
154.61214°
Mean anomaly
154.5462°
Eccentric anomaly
154.57918°
Mean motion
3.80334 °/min
BSTAR
0.00024758
Orbital period
94.65 mins
Loading maneuver chart data...
Loading SW <> Apogee altitude chart data...
Loading historical data...
Loading historical data...
Loading historical data...
Loading historical data...
Loading historical data...
Loading historical data...
Loading historical data...

OBJECT C Visibility forecast

Observer location: undefined°, undefined°

Span
Click to sort rows by Start time (UTC) header in descending order
Start Az.
Max El. time (UTC)
Max El. Az.
Max El.
End time (UTC)
End Az.
6 mins2025-05-09 13:19:23.211Z13.495° NNE2025-05-09 13:22:23.211Z35.248° NE44.121°2025-05-09 13:25:23.211Z190.399° SSW
5 mins2025-05-09 23:58:23.211Z121.037° SE2025-05-10 00:00:23.211Z69.947° E27.473°2025-05-10 00:03:23.211Z10.772° NNE
|